Showing default

QIANFAN-46, 62247

Orbit data source: Space-Track

QIANFAN-46, 62247 is a Chinese payload satellite in LEO that was launched on Thu, 05 Dec 2024 UTC via a CHANG ZHENG 6A launch vehicle from the Taiyaun Space Center, China (TSC). Payload-class satellites include a variety of spacecraft equipped with specific instruments for various scientific and technological missions. These include communications satellites like Starlink; space stations such as the ISS; scientific satellites like the Hubble; Earth observation satellites from companies like Planet Labs, Umbra, and HawkEye 360; GPS; miniature CubeSats for education and research; and military/defense satellites.

Loading next visibility...
Identifier
62247, 2024-232L
Orbit
LEO
Country
Flag of CNCN / PRC
Related business
Manufacturer
SECM
Mission
Operational Commercial Communications
Bus & Motor
QIANFAN, Unknown motor
Mass
267 kg wet, ~267 kg dry
Launch date (UTC)
2024-12-05 (1 year ago)
Launch vehicle
CHANG ZHENG 6A
Launch site
Taiyaun Space Center, China (TSC)
Object type
Payload
Rocket body
Debris
Shape & HBR
Box + 1 Pan, 5.0 m
Radar Cross Section
13.200 m², Large (>1 m²)

Expand to show TLE details & history
Last TLE update: 5 hours ago

TLE from 5 hours ago
0 QIANFAN-46
1 62247U 24232L   26035.13775053  .00000037  00000-0  38035-4 0  9994
2 62247  89.0009  35.8941 0015909  49.5609 310.6927 13.50995635106423
Epoch: 2026-02-04T03:18Z
TLE epoch observation values (Epoch: 2026-02-04T03:18:21.645Z)
Latitude
-0.00002°
Longitude
-148.00473°
Altitude
1,063.836 km
Speed
7.324 km/s
True Right ascension
02h 23m 34s
True Declination
0° 00' 00"
Sunlit
Object was in daylight at epoch
Visualization orbit readout
Latitude
Unknown
Longitude
Unknown
Altitude
Unknown
Speed
Unknown
Apparent Right ascension
Unknown
Apparent Declination
Unknown
Sunlit
N/A
Visualization observer readout
Local Sidereal Time
10:42:03
Azimuth
Unknown
Elevation
Unknown
Doppler factor
Unknown
Orbital elements
Apogee altitude
1,077.491 km
Perigee altitude
1,053.806 km
Semi-major axis
7,443.786 km
Eccentricity
0.00159
Inclination
89.0009°
RAAN
35.8941°
Arg. of periapsis
49.5609°
True anomaly
310.55429°
Mean anomaly
310.6927°
Eccentric anomaly
310.62352°
Mean motion
3.3795 °/min
Orbital period
106.52 mins
BSTAR
0.000038035
Loading maneuver chart data...
Computing Atmospheric mass density...
Loading historical data...
Loading historical data...
Loading historical data...
Loading historical data...
Loading historical data...
Loading historical data...
Loading historical data...

Documentation

Showing up to 5 results
|